Wind_Speed
76 77 77 76 75 71 75 77 78 77 78 78 78 77 77 76 76 76 75 76 76 76 75 74 72 71 71 70 70 69 69 68 69 67 66 66 64 63
69 73 74 74 74 75 76 77 77 78 78 80 82 82 82 81 80 79 79 79 78 78 78 77 76 76 76 75 74 73 73 72 72 72 71 71 70 70
58 58 60 64 68 71 73 74 76 79 80 79 81 81 81 81 82 81 79 78 77 78 79 79 79 79 81 81 80 79 78 77 76 76 75 75 75 74
63 63 64 65 65 65 64 64 68 70 71 73 75 78 80 83 83 82 80 79 78 77 77 77 78 78 78 80 81 80 81 82 83 82 81 80 80 79
66 67 68 66 66 68 71 68 68 70 70 71 71 73 74 76 77 79 79 79 78 78 79 79 79 79 80 81 81 82 83 84 86 86 86 87 86 86
66 67 69 70 72 72 72 73 75 75 76 75 76 79 81 82 82 83 83 84 83 83 82 82 83 83 83 83 84 86 88 89 89 88 89 88 88 87
70 70 70 71 73 77 79 78 79 81 83 83 83 83 85 87 87 87 86 88 88 89 89 88 87 86 86 86 86 88 89 90 90 92 92 92 92 92
66 67 67 67 69 70 71 73 75 73 76 78 81 83 84 86 88 89 90 91 90 90 91 90 90 89 89 89 88 88 88 88 89 91 91 92 92 92
60 62 62 63 63 63 64 65 65 66 69 71 72 73 75 76 76 79 81 83 86 87 90 92 94 93 93 92 92 93 94 93 93 92 92 93 93 94
60 61 63 64 65 65 65 65 65 65 68 69 68 69 70 71 71 71 73 74 75 77 81 82 87 89 91 93 93 94 96 96 96 97 97 97 98 98
62 62 62 62 62 63 64 64 63 64 65 65 65 66 66 67 68 69 69 70 70 72 76 76 76 77 81 83 84 87 90 91 93 95 97 98 99 100
58 59 60 61 63 64 65 66 67 68 69 69 69 69 70 70 70 72 71 70 69 69 72 74 75 75 76 76 78 79 80 82 83 85 88 91 94 97
61 63 64 65 66 67 68 69 69 70 70 71 71 71 72 73 73 75 75 75 73 72 74 76 75 75 76 73 76 78 79 80 81 82 83 85 88 91
63 64 65 66 67 67 68 69 70 71 71 71 71 72 73 74 75 76 76 77 77 77 77 78 77 79 79 78 78 81 81 83 84 85 86 88 89 91
62 63 63 64 64 64 63 63 63 63 64 64 63 64 65 67 69 71 72 73 74 75 76 76 76 76 78 78 79 80 80 81 81 83 84 83 83 83
57 56 55 54 52 51 51 50 49 49 48 47 47 47 48 49 51 54 56 58 60 59 60 61 62 65 66 68 70 70 70 69 67 69 69 68 67 68
48 48 47 45 43 42 41 40 39 38 38 37 37 38 39 40 42 44 46 47 47 47 47 49 51 52 52 52 54 56 58 60 61 61 62 61 61 63
43 42 39 37 36 35 34 33 33 34 34 34 35 36 36 37 37 38 38 39 40 41 43 45 48 49 49 49 51 53 55 56 58 59 60 59 58 62
36 34 33 32 31 30 31 32 32 33 34 34 34 34 33 33 33 33 34 34 34 36 38 42 43 45 46 47 49 52 51 51 52 54 57 58 57 59
30 30 29 28 28 29 30 30 31 32 33 33 31 30 30 31 30 31 31 31 32 32 33 36 38 41 45 47 48 47 48 49 52 53 55 56 56 56
28 27 26 26 26 27 28 28 28 29 30 30 30 29 29 30 29 30 31 31 32 33 33 34 37 40 42 45 45 45 47 49 51 52 54 54 53 54
26 25 25 25 25 26 26 27 27 28 29 29 30 30 30 30 30 30 31 32 33 34 34 34 37 40 41 42 44 46 46 48 49 51 54 55 56 56
25 24 25 24 24 24 25 25 25 26 28 29 29 29 29 30 32 32 32 34 35 35 36 36 36 38 40 42 44 44 45 47 49 51 51 54 56 56
Wind_Direction
257 257 258 260 259 258 258 256 254 256 256 257 256 257 257 260 259 257 256 257 258 257 257 256 256 256 256 256 256 255 255 254 254 254 255 256 256 257
257 257 258 259 258 256 256 256 256 256 257 257 256 259 260 260 256 256 255 254 255 256 256 256 256 256 256 256 256 256 256 256 256 256 256 256 258 259
262 261 259 258 257 256 256 256 256 257 257 258 258 259 259 258 256 256 254 253 253 254 254 255 256 256 256 257 257 257 257 257 257 257 257 257 257 257
256 256 254 255 256 257 257 258 258 256 256 256 257 257 257 257 257 255 255 254 255 255 255 255 255 255 255 256 257 258 258 258 258 258 258 257 257 257
256 256 257 258 257 255 253 254 257 258 260 259 259 259 258 257 258 258 257 256 255 255 256 257 257 257 256 256 256 257 257 257 257 257 257 257 257 256
269 268 265 264 263 265 267 267 267 266 265 262 260 260 260 259 259 260 260 260 259 258 257 257 259 259 259 258 257 256 255 255 254 254 254 255 256 256
273 271 270 270 270 269 269 271 270 270 269 267 264 260 259 257 257 256 256 256 258 258 259 258 258 258 258 258 257 257 256 255 254 253 253 253 253 253
271 270 270 269 269 270 269 269 269 269 269 267 265 263 260 260 259 257 256 255 254 255 256 256 257 257 256 255 255 254 253 252 252 252 251 251 251 251
267 268 268 267 267 266 267 267 267 267 267 266 265 263 262 261 259 260 260 259 258 257 257 255 256 256 256 255 254 254 253 252 250 250 250 251 251 250
268 268 267 267 266 266 266 265 266 268 267 265 264 262 262 262 261 259 259 259 258 257 257 256 256 255 255 255 254 254 254 253 253 252 251 250 250 250
267 268 267 266 267 267 265 265 265 265 265 265 266 264 263 262 262 261 260 258 258 258 259 257 256 255 255 256 256 256 256 256 256 255 255 254 254 253
268 268 267 267 267 266 266 266 265 264 264 264 263 263 262 262 261 261 260 259 257 257 258 257 257 256 255 255 254 255 255 255 255 255 256 256 256 256
272 271 270 270 269 269 268 267 267 266 266 266 265 264 264 263 262 262 262 261 260 258 256 257 258 257 257 254 256 256 256 256 256 255 255 256 256 256
273 273 272 272 272 271 271 270 270 269 268 267 266 265 265 264 263 262 262 261 261 260 259 259 257 257 257 256 255 255 256 256 257 257 258 258 259 259
273 272 272 271 271 270 270 269 269 268 268 267 267 266 265 265 264 264 263 262 261 261 260 259 259 258 257 256 255 256 256 257 257 257 257 258 259 260
273 272 272 271 271 271 270 269 269 269 268 268 267 266 266 265 265 265 264 264 262 261 260 260 259 258 257 257 256 255 255 255 253 254 255 255 257 259
271 270 269 270 268 267 267 267 267 268 268 268 268 267 267 266 265 265 264 264 264 263 260 259 258 256 255 253 252 250 249 248 249 248 250 251 255 260
266 266 266 265 264 264 266 266 267 268 269 270 271 272 273 274 272 270 268 266 264 262 261 259 258 257 255 254 253 249 250 247 246 247 249 252 256 263
263 261 260 260 261 263 263 263 264 266 268 269 270 269 270 273 272 270 268 267 266 264 262 261 261 260 259 256 254 254 250 247 246 249 254 260 261 263
259 259 259 259 261 262 262 262 262 263 266 268 269 270 272 272 273 273 271 270 269 268 267 265 263 261 260 258 255 252 252 248 249 254 260 264 265 265
259 257 258 259 260 261 262 263 264 266 270 271 273 273 272 272 273 273 273 273 272 271 270 269 267 264 261 259 255 249 249 255 259 262 265 268 269 268
258 257 259 260 261 264 267 268 268 269 271 274 275 276 276 275 276 275 274 273 273 273 273 271 270 267 265 261 256 253 253 256 259 264 268 271 272 271
255 256 258 260 262 266 269 270 271 272 273 273 274 275 277 278 278 277 277 277 276 274 274 273 272 271 267 264 261 258 257 258 262 266 270 274 275 276
Height
5607 5611 5615 5618 5621 5623 5627 5631 5635 5638 5640 5643 5647 5652 5656 5660 5664 5668 5672 5675 5679 5683 5686 5690 5694 5698 5702 5707 5711 5714 5719 5724 5729 5733 5737 5742 5746 5751
5589 5592 5595 5598 5601 5604 5607 5610 5613 5617 5622 5623 5627 5630 5634 5639 5643 5648 5651 5655 5659 5663 5667 5671 5675 5679 5683 5687 5692 5696 5701 5705 5710 5714 5718 5723 5727 5732
5573 5575 5577 5580 5582 5585 5587 5590 5594 5596 5601 5603 5605 5608 5611 5616 5621 5626 5630 5634 5638 5642 5646 5651 5654 5658 5662 5667 5672 5676 5680 5685 5690 5694 5699 5704 5708 5713
5557 5560 5562 5564 5566 5568 5570 5572 5575 5577 5580 5584 5585 5588 5592 5593 5598 5603 5608 5612 5617 5620 5625 5629 5633 5636 5641 5646 5651 5655 5658 5662 5668 5672 5676 5683 5687 5693
5540 5542 5544 5545 5546 5549 5552 5554 5556 5559 5562 5565 5568 5568 5571 5574 5578 5581 5585 5589 5594 5598 5602 5606 5610 5614 5620 5624 5629 5633 5635 5640 5646 5650 5655 5660 5665 5671
5521 5522 5523 5525 5526 5528 5530 5532 5533 5537 5540 5543 5548 5547 5550 5552 5556 5560 5564 5566 5570 5574 5578 5583 5587 5591 5596 5601 5605 5607 5611 5616 5622 5627 5632 5637 5642 5647
5500 5501 5502 5503 5503 5505 5506 5508 5510 5511 5514 5518 5522 5525 5526 5528 5529 5534 5539 5541 5544 5547 5552 5556 5562 5567 5571 5575 5579 5581 5584 5589 5595 5601 5607 5613 5618 5624
5478 5480 5481 5482 5482 5481 5483 5485 5486 5486 5489 5492 5495 5497 5500 5503 5505 5508 5511 5515 5522 5521 5523 5531 5533 5540 5545 5547 5551 5555 5558 5563 5569 5574 5579 5584 5590 5596
5461 5461 5461 5462 5462 5463 5463 5464 5464 5465 5467 5468 5471 5473 5475 5478 5482 5483 5483 5489 5493 5496 5496 5504 5505 5512 5516 5521 5525 5527 5531 5537 5543 5547 5552 5557 5563 5568
5444 5444 5445 5445 5445 5444 5445 5446 5446 5446 5447 5448 5451 5453 5454 5455 5457 5461 5462 5464 5467 5471 5468 5478 5478 5487 5489 5493 5496 5500 5504 5509 5513 5518 5524 5529 5534 5540
5427 5427 5426 5426 5425 5425 5426 5426 5427 5429 5427 5429 5430 5432 5434 5434 5436 5437 5441 5444 5448 5448 5447 5451 5456 5462 5463 5469 5472 5473 5477 5482 5486 5490 5495 5499 5504 5509
5410 5409 5408 5409 5407 5406 5407 5408 5410 5408 5409 5411 5413 5414 5414 5414 5415 5414 5417 5421 5426 5430 5427 5428 5432 5437 5443 5447 5449 5450 5453 5456 5460 5464 5468 5472 5476 5481
5390 5389 5389 5388 5388 5387 5387 5388 5388 5387 5389 5390 5390 5391 5391 5392 5392 5392 5394 5397 5402 5408 5407 5405 5412 5415 5419 5428 5428 5428 5429 5432 5435 5440 5443 5446 5448 5450
5371 5369 5368 5367 5367 5366 5366 5366 5365 5365 5367 5367 5368 5368 5368 5369 5369 5370 5371 5373 5377 5382 5383 5382 5389 5389 5394 5402 5408 5404 5406 5407 5409 5414 5416 5418 5422 5424
5351 5349 5348 5347 5347 5346 5346 5345 5345 5345 5346 5347 5346 5346 5346 5346 5346 5347 5347 5348 5352 5357 5359 5359 5362 5365 5369 5377 5380 5380 5380 5383 5385 5386 5389 5393 5397 5398
5331 5330 5329 5329 5328 5328 5328 5328 5327 5327 5328 5329 5329 5329 5328 5328 5328 5326 5327 5328 5331 5335 5336 5338 5340 5341 5346 5351 5353 5358 5358 5361 5361 5363 5367 5373 5377 5379
5314 5314 5314 5314 5315 5314 5315 5315 5314 5314 5315 5316 5316 5315 5315 5314 5314 5313 5313 5313 5315 5317 5320 5321 5322 5324 5328 5332 5335 5337 5339 5341 5344 5347 5349 5357 5362 5362
5300 5301 5302 5302 5302 5303 5303 5304 5304 5303 5304 5304 5304 5303 5303 5302 5302 5301 5301 5301 5302 5303 5305 5305 5306 5309 5313 5317 5318 5320 5320 5325 5328 5330 5334 5340 5347 5345
5289 5290 5290 5291 5292 5293 5293 5294 5294 5294 5294 5294 5294 5294 5293 5292 5291 5290 5290 5290 5290 5291 5291 5292 5293 5295 5297 5300 5301 5300 5306 5310 5312 5314 5316 5321 5327 5327
5279 5279 5281 5282 5282 5283 5284 5284 5285 5285 5285 5284 5284 5284 5283 5283 5282 5281 5280 5280 5280 5280 5280 5280 5280 5281 5281 5284 5286 5290 5290 5292 5294 5298 5301 5302 5306 5306
5269 5271 5272 5273 5274 5275 5275 5275 5276 5276 5275 5275 5275 5275 5274 5273 5273 5271 5271 5270 5270 5270 5270 5270 5268 5268 5269 5270 5272 5276 5278 5278 5279 5281 5282 5283 5285 5284
5261 5262 5263 5265 5266 5266 5267 5267 5267 5267 5266 5266 5265 5265 5265 5264 5263 5263 5262 5261 5260 5259 5259 5258 5257 5256 5256 5257 5259 5260 5262 5264 5265 5265 5264 5264 5264 5263
5253 5254 5256 5257 5258 5259 5259 5259 5259 5259 5258 5257 5257 5257 5256 5255 5254 5253 5252 5251 5249 5249 5247 5247 5246 5244 5244 5243 5244 5246 5247 5248 5249 5250 5251 5246 5244 5242